Torna al catalogo

STARLINK-30981

AttivoComunicazioniVLEO
NORAD 58494·PAYLOAD·🇺🇸 United States

Lanciato Dec 3, 2023 da Cape Canaveral Space Force Station

Loading…

Prossimi Passaggi (prossime 24 ore)

TLE

AggiornatoSource: CelesTrak SupGP

Epoca: Sep 14, 2026, 20:45 UTC

1 58494C 23186X   26257.86506944  .00018106  00000+0  65584-3 0  2577
2 58494  43.0035  75.0062 0001346 274.1843   3.4955 15.27567640    10

Traccia STARLINK-30981 in tempo reale con AllMySat

Download on the App Store